Location: Kerberlivit
(48.2787°N, 4.5413°W)
Time: 20:31:35
(UTC+00:00)

Daily predictions for brighter satellites

Satellite Brightness Start Highest point End
(mag) Time Altitude Azimuth Time Altitude Azimuth Time Altitude Azimuth
Meteor 2-10 Rocket 3.8 19:38:08 10° SSE 19:43:10 50° E 19:48:26 10° NNE
SL-8 R/B 3.8 19:38:43 10° W 19:43:34 83° SSW 19:48:25 10° ESE
BREEZE-M DEB (TANK) 3.7 19:40:54 10° SW 19:43:40 50° SE 19:49:58 10° ENE
Cosmos 2026 Rocket 4.3 19:42:44 10° N 19:48:33 45° ENE 19:54:23 10° SSE
Cosmos 405 3.5 19:46:06 10° SSE 19:49:18 36° E 19:52:33 10° NNE
OBJECT-B 0.9 19:47:42 10° SSE 19:50:51 55° ENE 19:54:02 10° N
IRS-1A Rocket 4.5 19:46:03 10° SE 19:51:28 55° ENE 19:57:01 10° N
SL-27 R/B 4.0 19:49:35 10° SW 19:52:55 41° WNW 19:56:13 10° N
BREEZE-M DEB (TANK) 3.6 19:49:17 10° SW 19:53:03 77° SE 20:06:06 10° ENE
CZ-4 R/B 4.1 19:50:16 10° SSW 19:53:39 23° W 19:57:02 10° NW
NOSS 3-4 (A) 3.4 19:48:02 10° SW 19:53:54 89° SE 20:00:16 10° NE
NOSS 3-4 (C) 3.4 19:48:08 10° SW 19:54:00 88° SE 20:00:22 10° NE
Cosmos 1892 2.6 19:51:30 10° N 19:55:17 78° E 19:59:05 10° SSE
Cosmos 1606 Rocket 3.6 19:54:49 10° S 19:59:11 86° W 20:03:34 10° N
Cosmos 2322 Rocket 4.1 19:54:47 10° NW 19:59:39 30° WSW 20:04:31 10° SSW
Cosmos 2098 Rocket 4.4 19:52:41 10° N 19:59:42 73° E 20:07:07 10° SSE
Cosmos 2251 Rocket 4.2 19:56:50 10° SSE 20:01:36 33° ESE 20:06:21 10° NE
Cosmos 389 Rocket 4.3 20:00:14 11° ESE 20:02:05 15° E 20:04:09 10° NE
Cosmos 2333 Rocket 2.3 19:58:26 10° NNW 20:04:15 89° ENE 20:10:00 10° SSE
Cosmos 2297 Rocket 3.8 20:02:27 10° SE 20:05:19 14° E 20:08:12 10° ENE
BREEZE-M DEB (TANK) 1.8 20:03:25 10° W 20:06:11 66° N 20:08:17 11° E
Cosmos 1634 Rocket 4.2 20:00:34 10° SSE 20:06:36 51° E 20:12:37 10° NNE
ATLAS 2AS CENTAUR R/B 3.0 19:59:37 10° SSW 20:07:30 76° SE 20:15:17 10° NE
Cosmos 1825 2.4 20:04:21 10° N 20:08:02 49° ENE 20:11:42 10° SSE
NOSS 7 (H) 4.1 20:05:14 10° SW 20:08:39 76° SE 20:11:36 10° NE
SPOT 3 Rocket 4.2 20:03:52 10° SE 20:08:39 39° ENE 20:13:27 10° N
Helios 1A Rocket 4.4 20:05:42 10° SSW 20:09:30 38° W 20:13:22 10° NNW
Cosmos 1726 Rocket 3.6 20:05:17 10° S 20:09:41 85° W 20:14:04 10° N
ARIANE 5 R/B 4.4 20:09:20 10° E 20:11:59 17° ENE 20:14:45 10° NNE
Ariane Rocket 3.0 20:08:59 10° SSE 20:14:01 77° ENE 20:19:05 10° NNW
Cosmos 2322 3.9 20:09:31 10° NNW 20:15:11 74° WSW 20:20:48 10° SSE
Cosmos 2228 4.1 20:11:35 10° SSW 20:15:48 49° WNW 20:20:01 10° N
Cosmos 1408 2.6 20:12:32 10° NNW 20:16:06 77° W 20:19:39 10° S
Orbus 7S? 3.2 20:15:48 10° SSW 20:18:28 52° SE 20:23:10 10° ENE
CZ-4C R/B 3.4 20:14:53 10° WSW 20:19:50 45° NW 20:25:51 10° NE
RESURS DK-1 2.5 20:17:13 10° S 20:21:12 50° ESE 20:25:13 10° NE
Landsat 7 4.4 20:20:38 14° SE 20:24:16 40° ENE 20:28:43 10° N
NOSS 7 (E) 4.3 20:23:30 10° SSW 20:27:18 71° SE 20:30:26 10° NE
Meteor 2-1 Rocket 4.4 20:22:19 10° S 20:28:02 61° E 20:33:53 10° NNE
Cosmos 2058 2.9 20:24:56 10° N 20:29:09 82° E 20:33:19 10° SSE
Cosmos 482 Debris 3.8 20:30:08 10° W 20:32:35 45° NNW 20:33:56 16° NE
SL-16 R/B 3.8 20:29:40 10° N 20:34:06 23° NE 20:37:53 12° E
USA 186 4.1 20:32:01 10° SSW 20:34:41 23° W 20:37:15 10° NW
Cosmos 2058 Rocket 3.2 20:31:29 10° SSW 20:35:50 74° W 20:40:12 10° N
Cosmos 1980 4.1 20:30:21 10° NNW 20:35:54 51° NE 20:39:44 20° SE
COSMOS 2487 3.4 20:32:46 10° SW 20:36:05 50° WNW 20:39:26 10° NNE
Cosmos 614 Rocket 4.2 20:31:18 10° S 20:36:11 46° ESE 20:41:04 10° NNE
Cosmos 1992 Rocket 4.4 20:31:36 10° NNW 20:36:46 65° WSW 20:41:55 10° S
BREEZE-M DEB (TANK) 3.7 20:33:20 10° WSW 20:37:18 89° SSE 20:51:51 10° ENE
Cosmos 2360 Rocket 4.2 20:36:01 10° NW 20:40:29 24° WSW 20:44:55 10° SSW
Cosmos 2151 3.8 20:39:26 10° N 20:43:26 35° ENE 20:45:17 24° ESE
IRIDIUM 104 4.5 20:40:01 13° SSE 20:44:36 54° E 20:49:42 10° NNE
COSMOS 2428 3.1 20:39:03 10° NNW 20:44:45 65° WSW 20:49:50 13° SSE
Meteor 2-3 Rocket 4.4 20:39:58 10° N 20:45:21 38° ENE 20:48:26 22° ESE
Cosmos 2344 3.4 20:38:24 10° SSW 20:45:50 74° SE 20:53:44 10° NE
Cosmos 1076 Rocket 3.5 20:42:59 10° N 20:47:20 68° ENE 20:50:07 21° SSE
FALCON 9 DEB 3.1 20:44:02 10° SW 20:47:24 56° SSE 20:49:44 18° ENE
ATLAS 3B R/B 2.9 20:40:33 10° NW 20:47:33 76° SW 20:53:12 18° SSE
Cosmos 192 4.4 20:44:32 10° NNW 20:49:30 67° ENE 20:52:27 24° SE
USA 215 3.3 20:45:38 19° ESE 20:50:32 81° NNE 20:57:06 10° NW
Cosmos 1812 Rocket 3.8 20:47:57 19° SSE 20:50:48 47° E 20:55:06 10° NNE
Resurs 01 Rocket 1.6 20:50:18 17° SSE 20:53:43 85° WSW 20:58:13 10° NNW
Cosmos 1818 3.5 20:48:20 10° SSW 20:53:44 74° SE 20:59:13 10° NE
IRIDIUM 114 4.3 20:49:08 13° S 20:53:44 66° E 20:58:55 10° N
Cosmos 1455 3.3 20:51:13 10° SSW 20:54:49 44° WNW 20:58:25 10° N
Cosmos 44 3.4 20:50:46 10° SW 20:55:54 86° SE 21:01:20 10° NE
Cosmos 407 Rocket 3.9 20:53:35 20° SSE 20:56:31 38° ESE 21:01:16 10° NE
ERS-1 Rocket 4.0 20:54:40 23° ESE 20:56:46 31° ENE 21:01:09 10° N
Cosmos 2219 Rocket 3.2 20:52:21 10° NW 20:57:43 44° WSW 21:02:59 10° S
NOSS 0 Rocket 4.0 20:52:38 10° NNW 20:58:53 84° WSW 21:03:07 22° SSE
Meteor 2-21 4.4 20:55:34 10° N 21:01:36 67° ENE 21:05:28 23° SSE
IRIDIUM 103 4.2 20:58:16 13° S 21:02:52 78° E 21:08:06 10° N
Cosmos 1633 2.7 20:59:43 10° N 21:03:17 55° ENE 21:04:10 41° SE
Cosmos 1356 3.7 21:00:39 10° NNW 21:04:03 64° W 21:05:42 27° S
CARTOSAT-1 4.2 21:04:22 31° ESE 21:05:43 41° ENE 21:09:47 10° N
IGS 5A 3.5 21:04:09 23° S 21:06:40 75° WSW 21:10:50 10° NNW
ATLAS 5 CENTAUR R/B 4.4 21:04:02 10° WNW 21:07:04 18° NNW 21:10:24 10° NNE
Lacrosse 5 rocket 3.4 21:05:12 10° WNW 21:08:45 26° N 21:12:28 10° NE
Cosmos 405 Rocket 3.3 21:06:08 10° NNW 21:10:05 56° W 21:12:30 21° SSW
Cosmos 909 Rocket 4.0 21:05:52 10° SW 21:12:12 89° ESE 21:18:43 10° NE
Cosmos 1809 Rocket 4.5 21:10:48 10° N 21:16:55 83° W 21:21:10 21° S
COSMOS 2455 4.1 21:18:15 22° E 21:18:15 22° E 21:21:46 10° ENE
SPOT 5 3.2 21:19:30 36° ESE 21:20:40 44° ENE 21:25:11 10° N
Cosmos 1140 Rocket 3.5 21:18:31 29° SSE 21:20:52 53° ESE 21:25:52 10° NNE
IRIDIUM 106 4.5 21:16:33 13° S 21:21:10 75° W 21:26:25 10° N
Spot 2 Rocket 3.4 21:21:43 35° SSE 21:23:53 77° ENE 21:28:58 10° NNW
Cosmos 2237 Rocket 2.2 21:19:11 10° NNW 21:24:51 81° WSW 21:27:26 34° SSE
CZ-2C R/B 3.6 21:21:27 10° NNE 21:25:56 84° WNW 21:28:54 21° SSW
Cosmos 2279 Rocket 4.3 21:20:44 10° SSW 21:26:53 68° WNW 21:33:05 10° N
Terra 2.4 21:28:59 36° E 21:29:57 40° ENE 21:34:24 10° N
Cosmos 389 Rocket 3.8 21:33:58 16° SW 21:36:23 39° WNW 21:39:46 10° N
Cosmos 2227 Rocket 2.2 21:38:45 34° S 21:41:05 60° ESE 21:46:40 10° NNE
SPOT 1/Viking Rocket 3.9 21:38:50 30° S 21:41:21 63° WSW 21:46:34 10° NNW
ARIANE 5 R/B 2.8 21:46:52 47° SSW 21:47:58 66° WSW 21:52:22 10° NNW
Cosmos 2297 Rocket 2.1 21:43:48 15° SSW 21:48:28 85° ESE 21:54:10 10° NNE
Cosmos 1190 Rocket 3.8 21:47:49 36° SSW 21:50:03 81° ESE 21:55:18 10° NNE
Cosmos 2219 3.0 21:47:37 23° SSW 21:51:14 82° ESE 21:56:53 10° NNE
Cosmos 2266 Rocket 4.1 21:44:54 10° NNW 21:51:18 73° W 21:54:23 32° S
H-2A R/B 4.1 21:50:20 10° NNE 21:53:41 44° ENE 21:53:41 44° ENE
ATLAS 2AS CENTAUR R/B 4.3 21:51:46 10° W 21:59:09 41° NNW 22:06:20 10° NE
Timation 2 Rocket 3.9 21:54:58 17° SSW 22:00:18 82° ESE 22:06:39 10° NNE
Genesis I 3.4 21:56:28 10° NW 22:00:14 70° W 22:00:14 70° W
Cosmos 1763 Rocket 3.8 21:57:29 10° NNW 22:02:26 49° ENE 22:02:58 47° E
BREEZE M DEB (TANK) 4.3 21:59:04 15° SW 22:02:44 59° SE 22:17:31 10° ENE
Cosmos 1862 4.4 21:59:08 10° N 22:02:04 34° NE 22:02:04 34° NE
Cosmos-2242 3.6 22:02:37 39° SW 22:03:54 55° WNW 22:08:09 10° N
Cosmos 1408 Rocket 3.9 22:02:15 10° N 22:06:07 53° NE 22:06:07 53° NE
Cosmos 676 Rocket 3.8 22:07:09 68° SE 22:07:29 70° ESE 22:12:39 10° NNE
CRYOSAT 2 4.3 22:10:15 65° E 22:10:24 66° E 22:15:17 10° N
SL-16 R/B 2.1 22:13:14 10° NNW 22:18:57 83° WSW 22:19:46 66° S
Cosmos 540 Rocket 4.1 22:16:57 10° N 22:21:49 41° ENE 22:22:04 40° ENE
Cosmos 1743 Rocket 4.4 22:17:54 10° N 22:21:17 39° NE 22:21:17 39° NE
Meteor 2-15 Rocket 4.3 22:22:07 60° SE 22:22:47 65° E 22:28:47 10° NNE
NOSS 3-1 (C) 4.2 22:18:20 10° NW 22:25:35 67° NE 22:28:42 41° ESE
Cosmos 1244 Rocket 4.4 22:19:23 10° N 22:25:49 83° E 22:27:02 61° SSE
SL-08 ROCKET BODY 4.4 22:21:08 10° N 22:27:13 64° ENE 22:27:52 60° ESE
Cosmos 2221 3.3 22:30:07 43° NNE 22:30:07 43° NNE 22:33:08 10° NNE
SL-08 R/B 4.4 22:24:47 10° N 22:30:57 68° E 22:31:43 62° ESE
USA 215 3.9 22:32:58 35° SSW 22:33:57 37° SW 22:39:57 10° WNW
Cosmos 44 Rocket 4.2 22:36:36 39° ENE 22:36:36 39° ENE 22:40:02 10° NE
ERS-1 Rocket 3.8 22:34:39 37° WSW 22:35:26 39° W 22:40:10 10° NNW
Aureole 1 Rocket 4.5 22:38:07 36° ENE 22:38:07 36° ENE 22:41:22 10° NE
Cosmos 1553 Rocket 3.8 22:39:11 66° ESE 22:39:29 67° E 22:45:32 10° NNE
Cosmos 1500 Rocket 4.1 22:37:14 10° N 22:40:50 54° NNE 22:40:50 54° NNE
Meteor 1-4 Rocket 4.4 22:44:18 29° NW 22:44:18 29° NW 22:46:33 10° N
Cosmos 1943 3.7 22:43:07 10° NNW 22:48:34 48° NE 22:48:59 47° ENE
Lacrosse 5 rocket 3.0 22:45:01 10° NW 22:48:54 31° NNE 22:49:47 29° NE
ALOS 2 4.2 22:49:56 27° NE 22:49:56 27° NE 22:52:56 10° N
Cosmos 1417 Rocket 4.4 22:49:46 68° ESE 22:50:05 69° E 22:56:20 10° NNE
BREEZE M DEB (TANK) 4.4 22:48:21 10° W 22:50:13 20° W 22:50:13 20° W
Cosmos 1850 Rocket 4.4 22:54:08 53° NE 22:54:08 53° NE 22:58:17 10° NNE
SPOT 5 4.5 22:58:43 23° W 22:59:00 23° W 23:02:46 10° NW
Meteor 2-2 Rocket 4.3 23:00:50 66° WSW 23:01:22 70° WNW 23:07:06 10° N
COSMOS 2455 2.9 23:01:18 56° WSW 23:02:33 74° NW 23:08:36 10° NNE
SeaSat 1 2.9 23:00:34 10° NNE 23:04:24 54° NE 23:04:24 54° NE
Terra 3.3 23:07:51 27° W 23:07:51 27° W 23:11:53 10° NW
Cosmos 2237 Rocket 4.4 23:05:25 10° WNW 23:07:58 13° W 23:09:16 12° WSW
Cosmos 2082 4.5 23:21:01 39° W 23:22:28 47° NW 23:27:54 10° NNE
Cosmos 2263 Rocket 2.7 23:24:26 51° NE 23:24:26 51° NE 23:28:41 10° NNE
Cosmos 2227 Rocket 4.0 23:20:40 10° WSW 23:25:32 29° NW 23:30:25 10° NNE
Cosmos 841 Rocket 4.1 23:27:24 10° NNW 23:31:35 52° WNW 23:31:35 52° WNW
USA 229 DEB 3.7 23:25:25 10° NW 23:32:45 85° SW 23:33:33 73° SSE
USA 229 3.7 23:25:31 10° NW 23:32:51 85° SW 23:33:40 73° SSE
Cosmos 1603 3.8 23:27:22 10° NNW 23:32:30 71° NW 23:32:30 71° NW
Cosmos 2297 Rocket 4.4 23:28:55 10° W 23:33:16 22° NW 23:37:38 10° N
Meteor 2-17 Rocket 4.4 23:27:40 10° N 23:33:43 81° NE 23:33:43 81° NE
USA 281 4.1 23:33:03 35° E 23:34:51 42° NE 23:40:57 10° NNW
Cosmos 1814 Rocket 4.5 23:35:17 10° NNW 23:39:37 58° NW 23:39:37 58° NW
Cosmos 1745 Rocket 4.3 23:34:52 10° NNW 23:41:02 55° W 23:41:13 55° W
Cosmos 1709 Rocket 3.9 23:40:40 10° N 23:46:44 80° WNW 23:46:44 80° WNW
NOSS 3-1 (A) 3.9 23:43:08 10° NW 23:50:36 76° SW 23:51:29 70° S
Meteor 1-25 Rocket 4.4 23:45:01 10° NNW 23:50:08 69° NW 23:50:08 69° NW
